Flag for Norway Weather past 2 weeks in Kvernaland, Norway

Now
64 °F

Clear.


Feels Like: 64 °F
Forecast: 60 / 69 °F
Wind: 5 mph from Southeast

Location: Stavanger / Sola

Current Time: Jul 2, 2015 at 5:37:56 AM

Latest Report: Jul 2, 2015 at 4:00 AM


Visibility: 31 mi

Pressure: 30.18 "Hg

Humidity: 64%

Dew point: 51 °F

Location of KvernalandLocation

Historic Weather in Kvernaland — Graph

°F

Kvernaland temperature yesterday

Maximum temperature yesterday: 75 °F (at 4:00 PM)
Minimum temperature yesterday: 59 °F (at 5:00 AM)
Average temperature yesterday: 68 °F

Past Weeks' High & Low Weather Summary

 TemperatureHumidityPressure
High75 °F (Jul 1, 4:00 PM)99% (Jun 28, 5:00 AM)30.24 "Hg (Jun 28, 5:00 AM)
Low46 °F (Jun 26, 4:00 AM)42% (Jul 1, 5:00 PM)29.68 "Hg (Jun 22, 8:00 PM)
Average55 °F80%29.95 "Hg
* Reported Jun 17 4:00 AM — Jul 2 4:00 AM, Kvernaland, Weather by CustomWeather, © 2015

Note: Actual official high and low records may vary slightly from our data, if they occured in-between our weather recording intervals... More about our weather records

Advertising

Kvernaland weather history for previous 24 hours

 ConditionsComfort  
Time TempWeatherWind HumidityBarometerVisibility
4:00 AM
Thu, Jul 2
64 °FClear.5 mph64%30.18 "Hg31 mi
3:00 AM66 °FClear.3 mph61%30.18 "Hg31 mi
2:00 AM69 °FClear.3 mph56%30.17 "Hg31 mi
1:00 AM68 °FClear.3 mph54%30.18 "Hg31 mi
12:00 AM69 °FClear.3 mph48%30.19 "Hg31 mi
10:00 PM
Wed, Jul 1
70 °FSunny.3 mph44%30.19 "Hg31 mi
9:00 PM70 °FSunny.6 mph48%30.18 "Hg22 mi
8:00 PM70 °FSunny.7 mph47%30.18 "Hg25 mi
7:00 PM72 °FSunny.8 mph43%30.19 "Hg25 mi
6:00 PM73 °FSunny.7 mph47%30.19 "Hg19 mi
5:00 PM75 °FSunny.8 mph42%30.20 "Hg25 mi
4:00 PM75 °FSunny.7 mph48%30.20 "Hg19 mi
3:00 PM73 °FSunny.8 mph50%30.21 "Hg19 mi
2:00 PM72 °FSunny.9 mph50%30.22 "Hg17 mi
1:00 PM73 °FSunny.7 mph50%30.22 "Hg16 mi
12:00 PM71 °FSunny.7 mph57%30.22 "Hg16 mi
11:00 AM72 °FSunny.5 mph52%30.22 "Hg17 mi
10:00 AM69 °FSunny.5 mph51%30.23 "Hg22 mi
9:00 AM67 °FOvercast.2 mph63%30.24 "Hg19 mi
8:00 AM64 °FScattered clouds.2 mph62%30.23 "Hg25 mi
7:00 AM63 °FMild.2 mph63%30.23 "HgN/A
6:00 AM59 °FPartly sunny.1 mph71%30.23 "Hg25 mi
5:00 AM59 °FOvercast.2 mph73%30.22 "Hg28 mi
Weather by CustomWeather, © 2015

See weather overviewHow to use our weather pages